Weather History for LEAL - February, 2013

Change the Weather History Date:

Saturday, February 16, 2013

  Actual Average Record
Temperature  
Mean Temperature 50 °F -  
Max Temperature 60 °F 63 °F 77 °F (2000)
Min Temperature 41 °F 45 °F 37 °F (2005)
Degree Days  
Heating Degree Days 14    
Moisture  
Dew Point 47 °F    
Average Humidity 79    
Maximum Humidity 100    
Minimum Humidity 55    
Precipitation  
Precipitation 0.00 in - - ()
Sea Level Pressure  
Sea Level Pressure 30.11 in    
Wind  
Wind Speed 3 mph ()    
Max Wind Speed 8 mph    
Max Gust Speed -    
Visibility 6.4 miles    
Events      
Averages and records for this station are not official NWS values.
T = Trace of Precipitation, MM = Missing Value Source: Averaged Metar Reports

Daily Weather History Graph

Daily Weather History Graph

Search for Another Location

Airport or City:

Trip Planner

Search our weather history database for the weather conditions in past years. The results will help you decide how hot, cold, wet, or windy it might be!

Date:

Astronomy

Feb. 16, 2013 Rise Set
Actual Time 7:51 AM CET 6:41 PM CET
Civil Twilight 7:24 AM CET 7:08 PM CET
Nautical Twilight 6:53 AM CET 7:39 PM CET
Astronomical Twilight 6:22 AM CET 8:10 PM CET
Moon 11:00 AM CET (2/16) 12:21 AM CET (2/16)
Length of Visible Light 11h 44m
Length of Day
10h 50m
Waxing Crescent, 37% of the Moon is Illuminated
Feb 16
Waxing Crescent
Feb 17
First Quarter
Feb 25
Full
Mar 4
Last Quarter
Mar 11
New

Hourly Weather History & Observations

Time (CET) Temp. Dew Point Humidity Pressure Visibility Wind Dir Wind Speed Gust Speed Precip Events Conditions
12:00 AM 46.4 °F 41.0 °F 81% 30.15 in - Calm Calm - N/A   Clear
1:00 AM 43 °F 36 °F 67% 30.16 in 12 mi WNW 1.2 mph - -   Clear
1:00 AM 42.8 °F 37.4 °F 81% 30.15 in - Variable 1.2 mph - N/A   Clear
1:30 AM 44.6 °F 39.2 °F 81% 30.15 in - Variable 2.3 mph - N/A   Clear
2:00 AM 42.8 °F 37.4 °F 81% 30.15 in - Variable 1.2 mph - N/A   Clear
2:30 AM 46.4 °F 41.0 °F 81% 30.15 in - Variable 1.2 mph - N/A   Clear
3:00 AM 48.2 °F 42.8 °F 82% 30.15 in - Variable 1.2 mph - N/A   Clear
3:30 AM 50.0 °F 42.8 °F 76% 30.12 in - North 3.5 mph - N/A   Clear
4:00 AM 50.0 °F 42.8 °F 76% 30.12 in 6.2 mi North 3.5 mph - N/A   Partly Cloudy
4:30 AM 50.0 °F 44.6 °F 82% 30.12 in 6.2 mi North 3.5 mph - N/A   Scattered Clouds
5:00 AM 51.8 °F 44.6 °F 76% 30.12 in 6.2 mi North 3.5 mph - N/A   Mostly Cloudy
5:30 AM 50.0 °F 44.6 °F 82% 30.12 in 6.2 mi Variable 2.3 mph - N/A   Mostly Cloudy
6:00 AM 50.0 °F 46.4 °F 87% 30.12 in 6.2 mi Calm Calm - N/A   Mostly Cloudy
6:30 AM 51.8 °F 46.4 °F 82% 30.12 in 6.2 mi NNW 3.5 mph - N/A   Mostly Cloudy
7:00 AM 51 °F 46 °F 75% 30.14 in 7 mi North 3.5 mph - -   Mostly Cloudy
7:00 AM 51.8 °F 48.2 °F 88% 30.12 in 6.2 mi Variable 2.3 mph - N/A   Mostly Cloudy
7:30 AM 53.6 °F 48.2 °F 82% 30.12 in 6.2 mi North 3.5 mph - N/A   Mostly Cloudy
8:00 AM 53.6 °F 48.2 °F 82% 30.12 in 6.2 mi North 4.6 mph - N/A   Mostly Cloudy
8:30 AM 53.6 °F 48.2 °F 82% 30.15 in 6.2 mi North 8.1 mph - N/A   Mostly Cloudy
9:00 AM 53.6 °F 48.2 °F 82% 30.15 in 6.2 mi North 3.5 mph - N/A   Mostly Cloudy
9:30 AM 55.4 °F 48.2 °F 77% 30.15 in 6.2 mi North 6.9 mph - N/A   Mostly Cloudy
10:00 AM 55.4 °F 50.0 °F 82% 30.15 in 6.2 mi North 6.9 mph - N/A   Mostly Cloudy
10:30 AM 57.2 °F 48.2 °F 72% 30.15 in 6.2 mi NNE 3.5 mph - N/A   Mostly Cloudy
11:00 AM 57.2 °F 48.2 °F 72% 30.15 in 6.2 mi NNE 3.5 mph - N/A   Mostly Cloudy
11:30 AM 59.0 °F 50.0 °F 72% 30.15 in 6.2 mi ENE 4.6 mph - N/A   Mostly Cloudy
12:30 PM 59.0 °F 50.0 °F 72% 30.15 in 6.2 mi East 6.9 mph - N/A   Mostly Cloudy
1:00 PM 59 °F 47 °F 55% 30.14 in 7 mi East 6.9 mph - -   Mostly Cloudy
1:00 PM 59.0 °F 50.0 °F 72% 30.12 in 6.2 mi East 6.9 mph - N/A   Mostly Cloudy
1:30 PM 59.0 °F 50.0 °F 72% 30.12 in 6.2 mi East 6.9 mph - N/A   Mostly Cloudy
2:00 PM 59.0 °F 51.8 °F 77% 30.09 in 6.2 mi East 6.9 mph - N/A   Mostly Cloudy
2:30 PM 59.0 °F 50.0 °F 72% 30.09 in 6.2 mi East 6.9 mph - N/A   Mostly Cloudy
3:00 PM 59.0 °F 50.0 °F 72% 30.09 in 6.2 mi East 6.9 mph - N/A   Scattered Clouds
3:30 PM 59.0 °F 50.0 °F 72% 30.06 in 6.2 mi East 5.8 mph - N/A   Scattered Clouds
4:00 PM 59.0 °F 50.0 °F 72% 30.06 in 6.2 mi East 4.6 mph - N/A   Scattered Clouds
4:30 PM 59.0 °F 50.0 °F 72% 30.06 in 6.2 mi ESE 4.6 mph - N/A   Scattered Clouds
5:00 PM 59.0 °F 50.0 °F 72% 30.06 in 6.2 mi ESE 5.8 mph - N/A   Scattered Clouds
5:30 PM 59.0 °F 50.0 °F 72% 30.06 in - SSE 5.8 mph - N/A   Clear
6:00 PM 57.2 °F 50.0 °F 77% 30.06 in - South 4.6 mph - N/A   Clear
6:30 PM 55.4 °F 50.0 °F 82% 30.06 in - Variable 2.3 mph - N/A   Clear
7:00 PM 54 °F 47 °F 70% 30.09 in 7 mi Calm Calm - -   Clear
7:00 PM 53.6 °F 50.0 °F 88% 30.06 in - Calm Calm - N/A   Clear
7:30 PM 53.6 °F 50.0 °F 88% 30.06 in 6.2 mi Calm Calm - N/A   Partly Cloudy
8:00 PM 53.6 °F 51.8 °F 94% 30.06 in 6.2 mi Variable 1.2 mph - N/A   Partly Cloudy
8:30 PM 53.6 °F 50.0 °F 88% 30.06 in 6.2 mi Calm Calm - N/A   Partly Cloudy
10:00 PM 50.0 °F 48.2 °F 94% 30.06 in 6.2 mi Variable 1.2 mph - N/A   Partly Cloudy
10:30 PM 48.2 °F 46.4 °F 93% 30.06 in 6.2 mi Variable 1.2 mph - N/A   Partly Cloudy
11:00 PM 48.2 °F 46.4 °F 93% 30.06 in 6.2 mi Variable 1.2 mph - N/A   Partly Cloudy
11:30 PM 46.4 °F 46.4 °F 100% 30.06 in 6.2 mi Variable 2.3 mph - N/A   Partly Cloudy